カタログに戻る

STARLINK-4058

運用中通信VLEO
NORAD 53266·PAYLOAD·🇺🇸 United States

打ち上げ Jul 24, 2022 から Cape Canaveral Space Force Station

Loading…

次のパス (今後24時間)

TLE

最新Source: CelesTrak SupGP

元期: Sep 15, 2026, 02:51 UTC

1 53266C 22086AA  26258.11923611 -.00043212  00000+0 -13113-2 0  2589
2 53266  53.1597  51.0973 0001145  81.5157  25.4085 15.33568135    12

AllMySatでSTARLINK-4058をリアルタイム追跡

Download on the App Store